Regional Weather Roundup
Issued by NWS Upton, NY

Current Version | Previous Version | Text Only | Print | Product List | Glossary Off
Versions: 1 2 3 4 5 6 7 8 9 10 11 12 13 14 15 16 17 18 19 20 21 22 23 24 25 26 27 28 29 30 31 32 33 34 35 36 37 38 39 40 41 42 43 44 45 46 47 48 49 50
000 ASUS41 KOKX 280708 RWROKX REGIONAL WEATHER ROUNDUP NATIONAL WEATHER SERVICE NEW YORK NY 300 AM EDT TUE JUL 28 2015 NOTE: "FAIR" INDICATES FEW OR NO CLOUDS BELOW 12,000 FEET WITH NO SIGNIFICANT WEATHER AND/OR OBSTRUCTIONS TO VISIBILITY. NYZ071-072-176-178-NJZ106-104-280800- NEW YORK CITY METRO AREA CITY SKY/WX TMP DP RH WIND PRES REMARKS CENTRAL PARK CLEAR 76 67 73 VRB6 30.03F LAGUARDIA APRT PTCLDY 77 68 73 SW6 29.99F KENNEDY INTL PTCLDY 75 69 81 SW7 30.01F NEWARK/LIBERTY MOCLDY 75 69 81 SW6 30.00F BRNX BOT. GARD N/A 75 68 78 SW8 30.00S TETERBORO CLEAR 74 67 78 CALM 29.99F $$ NYZ177-179-078>081-280800- LONG ISLAND NEW YORK CITY SKY/WX TMP DP RH WIND PRES REMARKS FARMINGDALE CLEAR 74 70 87 SW5 30.01F ISLIP MOCLDY 74 71 91 SW8 29.99F SHIRLEY MOCLDY 74 71 91 S6 30.02S WESTHAMPTON CLEAR 73 71 93 SW6 30.02F MONTAUK POINT N/A 73 70 90 SW3 30.02S $$ NYZ052-065-067-280800- HUDSON VALLEY CITY SKY/WX TMP DP RH WIND PRES REMARKS WHITE PLAINS CLEAR 70 68 93 CALM 30.01S NEWBURGH CLEAR 68 68 100 CALM 30.03S MONTGOMERY PTCLDY 65 64 97 CALM 30.01F POUGHKEEPSIE CLEAR 69 66 90 CALM 30.00S ALBANY PTCLDY 72 67 84 S3 30.00F $$ NJZ001-105-106-008-010-013-015-019>022-104-280800- NEW JERSEY CITY SKY/WX TMP DP RH WIND PRES REMARKS NEWARK/LIBERTY MOCLDY 75 69 81 SW6 30.00F TETERBORO CLEAR 74 67 78 CALM 29.99F CALDWELL CLEAR 72 68 87 CALM 30.01F MORRISTOWN CLEAR 68 66 94 CALM 30.01S FOG SOMERVILLE PTCLDY 69 66 90 CALM 29.99F SUSSEX PTCLDY 67 65 93 CALM 30.02S FOG ANDOVER N/A 67 66 97 CALM 30.03S TRENTON CLEAR 73 68 84 CALM 30.01F MILLVILLE MOCLDY 72 70 93 SE3 30.02S ATLANTIC CITY MOCLDY 74 72 93 CALM 30.02S WRIGHTSTOWN CLEAR 70 69 99 CALM 29.99S TOMS RIVER MOCLDY 70 66 88 CALM 30.02S BELMAR CLEAR 72 64 78 CALM 30.01F $$ PAZ047>061-062-071-280800- EASTERN PENNSYLVANIA CITY SKY/WX TMP DP RH WIND PRES REMARKS PHILADELPHIA PTCLDY 76 71 85 S6 30.01F ALLENTOWN CLEAR 71 68 90 CALM 30.02F FOG SCRANTON CLEAR 66 64 93 E6 30.05R $$ CTZ002-004>006-009-010-012-RIZ004-006-007-MAZ004-011-015-280800- SOUTHERN NEW ENGLAND IN CT CITY SKY/WX TMP DP RH WIND PRES REMARKS BRADLEY INTL PTCLDY 71 68 90 S5 30.00S HARTFORD PTCLDY 72 69 90 S5 30.00R DANBURY CLEAR 67 63 87 CALM 30.03S WTRBRY/OXFORD CLEAR 68 61 77 CALM 30.04S BRIDGEPORT CLEAR 74 71 91 CALM 30.00S MERIDEN CLEAR 69 66 90 CALM 30.01S NEW HAVEN PTCLDY 70 69 97 CALM 30.01S CHESTER PTSUNNY 72 70 94 SW5 30.03S GROTON PTCLDY 71 69 93 CALM 30.00S FOG WILLIMANTIC MOCLDY 69 66 90 CALM 30.02R IN RI CITY SKY/WX TMP DP RH WIND PRES REMARKS PROVIDENCE PTCLDY 69 68 96 SW5 30.01F FOG BLOCK ISLAND MOCLDY 72 72 100 SW7 30.03R WESTERLY CLOUDY 72 70 93 SW3 30.02R IN MA CITY SKY/WX TMP DP RH WIND PRES REMARKS BOSTON PTCLDY 71 69 93 SW9 29.99S WORCESTER CLEAR 68 65 90 W10 30.03S WESTFIELD FOG 65 64 97 CALM 30.00F VSB 1/2 PROVINCETOWN CLEAR 70 63 78 SW9 30.01S NANTUCKET MOCLDY 69 66 90 S8 30.03S $$ ANZ330-335-338-340-345-350-353-355-280800- COASTAL MARINE OBSERVATIONS STATION/POSITION TIME SKY/WX TEMP WIND PRES VSBY WAVE AIR SEA DIR/SP/G HT/PER (UTC) (F) (DEG/KT/KT) (MB) (MI) (FT/S) NY HARB ENTRANCE 0650 75 75 220/ 8/ 10 1015.5 2/11 4S FIRE IS NOT AVBL 20S FIRE ISLAND 0650 74 72 200/ 6/ 8 1016.0 2/10 GREAT SOUTH BAY 0600 75 79 220/ 8/ 10 N/A 23SW MTP 0650 74 74 220/ 8/ 10 1015.8 2/10 HUDSON CANYON NOT AVBL KINGS POINT 0600 75 71 190/ 3/ 5 1015.4 CENTRAL LI SOUND NOT AVBL EASTERN LI SOUND 0600 71 69 230/ 6/ 8 N/A ROBBINS REEF 0600 75 230/ 5/ 6 1015.1 $$ >>>>>>>>>>>>>>>>>>>>>>>>>>>> KEY <<<<<<<<<<<<<<<<<<<<<<<<<<< > < > SKY/WX - SKY CONDITION/PRESENT WEATHER < > TMP - TEMPERATURE IN FAHRENHEIT < > DP - DEWPOINT IN FAHRENHEIT < > RH - RELATIVE HUMIDITY IN PERCENT < > WIND - DIRECTION AND SPEED IN MPH < > PRES - MEAN SEA LEVEL PRESSURE IN INCHES OF HG < > WCI - WIND CHILL INDEX < > VSB - VISIBILITY IN MILES < > HX - HEAT INDEX < > TC - TEMPERATURE IN CELSIUS < > VRB - VARIABLE WIND DIRECTION < > < >>>>>>>>>>>>>>>>>>>>>>>>>>>> KEY <<<<<<<<<<<<<<<<<<<<<<<<<<<

USA.gov is the U.S. government's official web portal to all federal, state and local government web resources and services.